Weather History for Orange, MA

Change the Weather History Date:

Tuesday, May 21, 2013

  Actual Average Record
Temperature  
Mean Temperature 70 °F -  
Max Temperature 91 °F 65 °F 91 °F (2013)
Min Temperature 51 °F 42 °F 28 °F (2002)
Cooling Degree Days 6    
Growing Degree Days 20 (Base 50)    
Moisture  
Dew Point 57 °F    
Average Humidity 87    
Maximum Humidity 100    
Minimum Humidity 33    
Precipitation  
Precipitation 0.34 in - - ()
Sea Level Pressure  
Sea Level Pressure 29.94 in    
Wind  
Wind Speed 2 mph (East)    
Max Wind Speed 17 mph    
Max Gust Speed 28 mph    
Visibility 5 miles    
Events Fog , Rain , Thunderstorm    
Averages and records for this station are not official NWS values.
T = Trace of Precipitation, MM = Missing Value Source: NWS Daily Summary

Daily Weather History Graph

Daily Weather History Graph

Search for Another Location

Airport:

Trip Planner

Search our weather history database for the weather conditions in past years. The results will help you decide how hot, cold, wet, or windy it might be!

Date:

Astronomy

May. 21, 2013 Rise Set
Actual Time 5:21 AM EDT 8:10 PM EDT
Civil Twilight 4:48 AM EDT 8:43 PM EDT
Nautical Twilight 4:06 AM EDT 9:25 PM EDT
Astronomical Twilight 3:18 AM EDT 10:14 PM EDT
Moon 4:16 PM EDT (5/21) 2:52 AM EDT (5/21)
Length of Visible Light 15h 55m
Length of Day
14h 49m
Waxing Gibbous, 84% of the Moon is Illuminated
May 21
Waxing Gibbous
May 25
Full
May 31
Last Quarter
Jun 8
New
Jun 16
First Quarter

Hourly Weather History & Observations

Time (EDT) Temp. Heat Index Dew Point Humidity Pressure Visibility Wind Dir Wind Speed Gust Speed Precip Events Conditions
12:30 AM 60.8 °F - 60.8 °F 100% 29.99 in 6.0 mi Calm Calm - N/A   Mostly Cloudy
12:52 AM 60.1 °F - 59.0 °F 96% 29.99 in 5.0 mi Calm Calm - N/A   Scattered Clouds
1:34 AM 59.0 °F - 57.2 °F 94% 29.97 in 1.5 mi Calm Calm - N/A   Clear
1:36 AM 59.0 °F - 57.2 °F 94% 29.97 in 0.8 mi Calm Calm - N/A   Clear
1:46 AM 57.2 °F - 57.2 °F 100% 29.97 in 1.2 mi Calm Calm - N/A   Clear
1:48 AM 57.2 °F - 57.2 °F 100% 29.97 in 2.0 mi Calm Calm - N/A   Clear
1:52 AM 59.0 °F - 57.9 °F 96% 29.96 in 1.0 mi Calm Calm - N/A   Clear
1:54 AM 59.0 °F - 57.2 °F 94% 29.96 in 0.8 mi Calm Calm - N/A   Mist
2:33 AM 59.0 °F - 57.2 °F 94% 29.95 in 4.0 mi Calm Calm - 0.00 in Rain Light Rain
2:46 AM 57.2 °F - 57.2 °F 100% 29.95 in 1.8 mi Calm Calm - 0.00 in   Clear
2:49 AM 57.2 °F - 57.2 °F 100% 29.95 in 1.0 mi Calm Calm - 0.00 in   Clear
2:52 AM 57.0 °F - 57.0 °F 100% 29.94 in 0.8 mi Calm Calm - 0.00 in   Clear
3:10 AM 57.2 °F - 57.2 °F 100% 29.94 in 1.2 mi Calm Calm - N/A   Clear
3:13 AM 57.2 °F - 55.4 °F 94% 29.94 in 3.0 mi Calm Calm - N/A   Partly Cloudy
3:16 AM 57.2 °F - 55.4 °F 94% 29.94 in 1.5 mi Calm Calm - N/A   Partly Cloudy
3:18 AM 57.2 °F - 55.4 °F 94% 29.94 in 0.8 mi Calm Calm - N/A   Mist
3:52 AM 57.0 °F - 55.9 °F 96% 29.94 in 0.2 mi Calm Calm - N/A Fog Fog
4:52 AM 57.0 °F - 55.9 °F 96% 29.96 in 0.2 mi Calm Calm - N/A Fog Fog
5:10 AM 57.2 °F - 55.4 °F 94% 29.95 in 1.2 mi Calm Calm - N/A   Overcast
5:12 AM 57.2 °F - 55.4 °F 94% 29.95 in 2.0 mi Calm Calm - N/A   Mostly Cloudy
5:23 AM 55.4 °F - 55.4 °F 100% 29.95 in 1.2 mi Calm Calm - N/A   Mostly Cloudy
5:25 AM 55.4 °F - 55.4 °F 100% 29.95 in 1.0 mi Calm Calm - N/A   Mist
5:36 AM 55.4 °F - 55.4 °F 100% 29.95 in 1.5 mi Calm Calm - N/A   Partly Cloudy
5:45 AM 55.4 °F - 55.4 °F 100% 29.95 in 2.5 mi Calm Calm - N/A   Partly Cloudy
5:52 AM 55.9 °F - 55.0 °F 97% 29.94 in 1.2 mi Calm Calm - N/A   Clear
5:56 AM 55.4 °F - 55.4 °F 100% 29.95 in 0.8 mi Calm Calm - N/A   Clear
6:02 AM 57.2 °F - 55.4 °F 94% 29.95 in 1.2 mi Calm Calm - N/A   Clear
6:05 AM 57.2 °F - 55.4 °F 94% 29.95 in 1.5 mi Calm Calm - N/A   Partly Cloudy
6:21 AM 57.2 °F - 55.4 °F 94% 29.93 in 3.0 mi Calm Calm - N/A   Scattered Clouds
6:30 AM 57.2 °F - 57.2 °F 100% 29.95 in 2.5 mi Calm Calm - N/A   Mostly Cloudy
6:38 AM 57.2 °F - 57.2 °F 100% 29.95 in 1.2 mi Calm Calm - N/A   Mostly Cloudy
6:52 AM 57.9 °F - 57.0 °F 97% 29.94 in 2.0 mi Calm Calm - N/A   Overcast
7:10 AM 59.0 °F - 57.2 °F 94% 29.94 in 3.0 mi Calm Calm - N/A   Overcast
7:29 AM 60.8 °F - 59.0 °F 94% 29.94 in 5.0 mi Calm Calm - N/A   Partly Cloudy
7:52 AM 64.9 °F - 61.0 °F 87% 29.94 in 8.0 mi Calm Calm - N/A   Clear
8:14 AM 66.2 °F - 62.6 °F 88% 29.94 in 9.0 mi South 5.8 mph - N/A   Mostly Cloudy
8:34 AM 66.2 °F - 62.6 °F 88% 29.95 in 10.0 mi South 4.6 mph - N/A   Overcast
8:52 AM 68.0 °F - 62.1 °F 81% 29.95 in 10.0 mi Variable 3.5 mph - N/A   Overcast
9:52 AM 72.0 °F - 64.0 °F 76% 29.93 in 9.0 mi South 10.4 mph - N/A   Scattered Clouds
10:52 AM 73.9 °F - 64.0 °F 71% 29.91 in 10.0 mi SSE 4.6 mph - N/A   Partly Cloudy
11:52 AM 80.1 °F 81.7 °F 64.0 °F 58% 29.88 in 10.0 mi Variable 4.6 mph - N/A   Partly Cloudy
12:52 PM 84.0 °F 84.9 °F 63.0 °F 49% 29.86 in 10.0 mi WSW 9.2 mph - N/A   Clear
1:52 PM 87.1 °F 86.5 °F 59.0 °F 39% 29.85 in 10.0 mi Variable 6.9 mph 16.1 mph N/A   Clear
2:52 PM 89.1 °F 87.7 °F 57.0 °F 34% 29.83 in 10.0 mi NW 10.4 mph 16.1 mph N/A   Clear
3:52 PM 90.0 °F 88.6 °F 57.0 °F 33% 29.83 in 10.0 mi NW 6.9 mph - N/A   Partly Cloudy
4:52 PM 79.0 °F - 64.9 °F 62% 29.84 in 10.0 mi NE 10.4 mph 18.4 mph N/A   Scattered Clouds
5:52 PM 75.0 °F - 63.0 °F 66% 29.86 in 10.0 mi ESE 12.7 mph 17.3 mph N/A   Clear
6:33 PM 69.8 °F - 59.0 °F 68% 29.91 in 10.0 mi East 10.4 mph - N/A   Mostly Cloudy
6:52 PM 66.0 °F - 55.9 °F 70% 29.93 in 10.0 mi East 13.8 mph 19.6 mph N/A   Scattered Clouds
7:01 PM 64.4 °F - 55.4 °F 73% 29.94 in 10.0 mi East 11.5 mph - N/A   Mostly Cloudy
7:37 PM 57.2 °F - 51.8 °F 82% 29.95 in 10.0 mi ENE 12.7 mph 20.7 mph N/A   Overcast
7:52 PM 57.0 °F - 52.0 °F 83% 29.96 in 10.0 mi East 13.8 mph 21.9 mph N/A   Overcast
8:52 PM 55.0 °F - 51.1 °F 86% 29.95 in 10.0 mi ENE 6.9 mph - N/A   Overcast
9:52 PM 53.1 °F - 48.9 °F 86% 29.93 in 10.0 mi East 11.5 mph 18.4 mph 0.00 in Rain Light Rain
10:52 PM 53.1 °F - 48.9 °F 86% 29.96 in 10.0 mi ENE 6.9 mph - 0.01 in   Overcast
11:24 PM 53.6 °F - 50.0 °F 88% 30.07 in 6.0 mi North 17.3 mph 27.6 mph 0.03 in Rain , Thunderstorm Light Rain
11:36 PM 51.8 °F - 50.0 °F 94% 30.03 in 3.0 mi East 8.1 mph - 0.06 in Rain , Thunderstorm Thunderstorms and Rain
11:52 PM 52.0 °F - 50.0 °F 93% 29.98 in 2.0 mi ENE 13.8 mph 19.6 mph 0.33 in Rain , Thunderstorm Heavy Thunderstorms and Rain
11:54 PM 51.8 °F - 50.0 °F 94% 29.98 in 1.8 mi ENE 11.5 mph 19.6 mph 0.04 in Rain , Thunderstorm Heavy Thunderstorms and Rain